Regional Weather Roundup
Issued by NWS

Home | Current Version | Previous Version | Graphics & Text | Print | Product List | Glossary On
Versions: 1 2 3 4 5 6 7 8 9 10 11 12 13 14 15 16 17 18 19 20 21 22 23 24 25 26 27 28 29 30 31 32 33 34 35 36 37 38 39 40 41 42 43 44 45 46 47 48 49 50
000
ASUS45 KBOI 271510
RWRID
WEATHER ROUNDUP FOR IDAHO
NATIONAL WEATHER SERVICE BOISE ID
800 AM MST THU NOV 27 2014

NOTE: "FAIR" INDICATES FEW OR NO CLOUDS BELOW 12000 FEET
WITH NO SIGNIFICANT WEATHER AND/OR OBSTRUCTIONS TO VISIBILITY

IDZ012-014-271600-
SOUTHWEST IDAHO


CITY           SKY/WX    TMP DP  RH WIND       PRES   REMARKS
BOISE          CLOUDY    48  35  60 E8        30.15S
CALDWELL       NOT AVBL
MOUNTAIN HOME  CLOUDY    44  41  89 SE9       30.18R
$$

IDZ016-017-271600-
SOUTHCENTRAL IDAHO


CITY           SKY/WX    TMP DP  RH WIND       PRES   REMARKS
BURLEY         CLOUDY    47  29  49 SW9       30.21R
JEROME         CLOUDY    42  32  67 VRB7      30.22R
TWIN FALLS     CLOUDY    52  30  43 SW10      30.22R
$$

IDZ019>023-271600-
SOUTHEAST IDAHO


CITY           SKY/WX    TMP DP  RH WIND       PRES   REMARKS
IDAHO FALLS    CLOUDY    35  30  82 NE7       30.20R WCI  29
POCATELLO      CLEAR     52  26  36 S17G26    30.20R
REXBURG        CLOUDY    33  30  88 CALM      30.20S
$$

IDZ006-010-011-018-031-032-271600-
CENTRAL IDAHO MOUNTAINS


CITY           SKY/WX    TMP DP  RH WIND       PRES   REMARKS
MCCALL         CLOUDY    35  33  92 NE3       30.13R
HAILEY         MOCLDY    36  27  69 NW8       30.25R WCI  29
STANLEY          N/A     47  25  42 SW8       30.24R
SALMON         CLOUDY    32  28  86 NW7       30.13S WCI  26
CHALLIS        CLOUDY    33  28  81 S5        30.15S WCI  29
$$

IDZ002-004-006-007-026-271600-
NORTHERN IDAHO


CITY           SKY/WX    TMP DP  RH WIND       PRES   REMARKS
LEWISTON       CLOUDY    45  41  86 VRB3      29.97R
LOWELL           N/A     40  38  93 N5        30.10R
COEUR D`ALENE  CLOUDY    48  39  71 SW7       29.88R
MULLAN PASS    LGT RAIN  36  32  85 SW15G30   29.93S WCI  27
$$



USA.gov is the U.S. government's official web portal to all federal, state and local government web resources and services.